Location: Oak Glen
(34.0495°N, 116.9470°E)
Time: 10:31:34
(UTC-07:00)

Tiangong 1 - Pass Details

Date: 09 October 2017
Orbit: 292 x 320 km, 42.8° (Epoch: 22 October)

Event Time Altitude Azimuth Distance (km) Brightness Sun altitude
Rises 04:06:01 0° 295° (WNW) 2,030 6.0 -17.4°
Reaches altitude 10° 04:08:46 10° 327° (NNW) 1,193 4.0 -17.9°
Maximum altitude 04:10:06 13° 357° (N) 1,045 3.3 -18.2°
Enters shadow 04:10:14 13° 360° (N) 1,046 3.3 -18.2°
